Home > Weather > Kaohsiung > Past weeks

Flag for Taiwan Weather for the Past 2 Weeks in Kaohsiung, Taiwan

Now
82 °F

Scattered clouds.


Feels Like: 85 °F
Forecast: 56 / 62 °F
Wind: 10 mph from West

Location: Kaohsiung International Airport

Current Time: Feb 14, 2016 at 4:09:06 PM

Latest Report: Feb 14, 2016 at 3:30 PM


Visibility: N/A

Pressure: 29.92 "Hg

Humidity: 62%

Dew point: 68 °F

Location of KaohsiungLocation

Historic Weather in Kaohsiung — Graph

°F

Kaohsiung Temperature Yesterday

Maximum temperature yesterday: 84 °F (at 1:00 PM)
Minimum temperature yesterday: 66 °F (at 6:30 AM)
Average temperature yesterday: 77 °F

High & Low Weather Summary for the Past Weeks

 TemperatureHumidityPressure
High84 °F (Feb 13, 1:00 PM)100% (Jan 31, 12:00 AM)30.27 "Hg (Jan 31, 12:00 AM)
Low48 °F (Feb 7, 6:30 AM)12% (Feb 10, 2:30 PM)29.89 "Hg (Feb 13, 2:00 PM)
Average67 °F72%30.08 "Hg
* Reported Jan 30 3:00 PM — Feb 14 3:00 PM, Kaohsiung, Weather by CustomWeather, © 2016

Note: Actual official high and low records may vary slightly from our data, if they occured in-between our weather recording intervals... More about our weather records

Advertising

Kaohsiung Weather History for the Previous 24 Hours

 ConditionsComfort  
Time TempWeatherWind HumidityBarometerVisibility
3:00 PM
Sun, Feb 14
82 °FScattered clouds.12 mph58%29.92 "HgN/A
2:30 PM84 °FScattered clouds.12 mph55%29.92 "HgN/A
2:00 PM84 °FScattered clouds.12 mph55%29.92 "HgN/A
1:30 PM84 °FScattered clouds.10 mph55%29.92 "HgN/A
1:00 PM84 °FScattered clouds.9 mph55%29.92 "HgN/A
12:30 PM84 °FScattered clouds.10 mph55%29.95 "HgN/A
12:00 PM82 °FScattered clouds.10 mph62%29.95 "HgN/A
11:30 AM82 °FPartly sunny.10 mph58%29.98 "HgN/A
11:00 AM84 °FPartly sunny.8 mph55%29.98 "HgN/A
10:30 AM82 °FScattered clouds.9 mph58%29.98 "HgN/A
10:00 AM82 °FScattered clouds.7 mph62%29.98 "HgN/A
9:30 AM79 °FPassing clouds.7 mph65%29.98 "HgN/A
9:00 AM77 °FPassing clouds.6 mph69%29.98 "HgN/A
8:30 AM75 °FPassing clouds.6 mph69%29.98 "HgN/A
8:00 AM73 °FPassing clouds.5 mph74%29.95 "HgN/A
7:30 AM72 °FPassing clouds.2 mph83%29.95 "HgN/A
7:00 AM68 °FPassing clouds.3 mph88%29.95 "HgN/A
6:30 AM68 °FPassing clouds.3 mph83%29.95 "HgN/A
5:00 AM68 °FPassing clouds.2 mph88%29.92 "HgN/A
4:00 AM68 °FPassing clouds.1 mph88%29.92 "HgN/A
3:00 AM72 °FPassing clouds.5 mph83%29.92 "HgN/A
2:00 AM72 °FPassing clouds.3 mph78%29.92 "HgN/A
1:00 AM72 °FPassing clouds.3 mph83%29.95 "HgN/A
12:00 AM73 °FPassing clouds.3 mph78%29.95 "HgN/A
11:30 PM
Sat, Feb 13
73 °FPassing clouds.5 mph83%29.95 "HgN/A
11:00 PM73 °FPassing clouds.5 mph83%29.95 "HgN/A
10:30 PM73 °FPassing clouds.3 mph83%29.95 "HgN/A
10:00 PM73 °FPassing clouds.3 mph89%29.95 "HgN/A
9:30 PM75 °FPassing clouds.2 mph83%29.95 "HgN/A
9:00 PM75 °FPassing clouds.2 mph83%29.95 "HgN/A
8:30 PM75 °FPassing clouds.3 mph89%29.95 "HgN/A
8:00 PM75 °FPassing clouds.6 mph89%29.95 "HgN/A
7:30 PM75 °FPassing clouds.5 mph83%29.95 "HgN/A
7:00 PM77 °FPassing clouds.3 mph83%29.92 "HgN/A
6:30 PM77 °FPassing clouds.6 mph83%29.92 "HgN/A
6:00 PM79 °FPassing clouds.7 mph79%29.92 "HgN/A
5:30 PM79 °FPassing clouds.6 mph79%29.92 "HgN/A
5:00 PM81 °FPassing clouds.8 mph74%29.92 "HgN/A
4:30 PM81 °FPassing clouds.9 mph74%29.92 "HgN/A
4:00 PM82 °FPassing clouds.7 mph70%29.89 "HgN/A
Weather by CustomWeather, © 2016

See weather overviewHow to use our weather pages